Farmington, NM

11:26 AM MST on November 20, 2017 (GMT -0700)
Four Corners Regional

Weather History for KFMN - November, 2013

Change the Weather History Date:

Tuesday, November 5, 2013

  Actual Average Record
Temperature  
Mean Temperature 36 °F -  
Max Temperature 45 °F 55 °F 71 °F (1999)
Min Temperature 26 °F 30 °F 20 °F (1992)
Degree Days  
Heating Degree Days 28    
Moisture  
Dew Point 16 °F    
Average Humidity 42    
Maximum Humidity 82    
Minimum Humidity 10    
Precipitation  
Precipitation 0.02 in - - ()
Sea Level Pressure  
Sea Level Pressure 30.08 in    
Wind  
Wind Speed 11 mph (West)    
Max Wind Speed 25 mph    
Max Gust Speed 33 mph    
Visibility 10 miles    
Events Rain    
Averages and records for this station are not official NWS values.
T = Trace of Precipitation, MM = Missing Value Source: NWS Daily Summary

Daily Weather History Graph

Daily Weather History Graph

Search for Another Location

Airport or City:

Trip Planner

Search our weather history database for the weather conditions in past years. The results will help you decide how hot, cold, wet, or windy it might be!

Date:

Astronomy

Nov. 05, 2013 Rise Set
Actual Time 6:40 AM MST 5:11 PM MST
Civil Twilight 6:13 AM MST 5:38 PM MST
Nautical Twilight 5:43 AM MST 6:09 PM MST
Astronomical Twilight 5:12 AM MST 6:39 PM MST
Moon 8:56 AM MST (11/5) 7:18 PM MST (11/5)
Length of Visible Light 11h 24m
Length of Day
10h 30m
Waxing Crescent, 7% of the Moon is Illuminated
Nov 5
Waxing Crescent
Nov 9
First Quarter
Nov 17
Full
Nov 25
Last Quarter
Dec 2
New

Hourly Weather History & Observations

Time (MST) Temp. Windchill Dew Point Humidity Pressure Visibility Wind Dir Wind Speed Gust Speed Precip Events Conditions
12:07 AM 41.0 °F 39.0 °F 35.6 °F 81% 29.91 in 10.0 mi NNW 3.5 mph - 0.00 in Rain Light Rain
12:53 AM 41.0 °F 39.0 °F 36.0 °F 82% 29.86 in 10.0 mi West 3.5 mph - 0.00 in   Scattered Clouds
1:53 AM 39.0 °F 34.8 °F 32.0 °F 76% 29.86 in 10.0 mi West 5.8 mph - N/A   Overcast
2:53 AM 37.9 °F 32.1 °F 25.0 °F 60% 29.87 in 10.0 mi West 8.1 mph - N/A   Overcast
3:53 AM 35.1 °F 26.4 °F 19.9 °F 54% 29.89 in 10.0 mi WSW 12.7 mph - N/A   Clear
4:53 AM 35.1 °F 27.9 °F 23.0 °F 61% 29.95 in 10.0 mi West 9.2 mph - N/A   Overcast
5:53 AM 34.0 °F 24.6 °F 21.9 °F 61% 29.96 in 10.0 mi West 13.8 mph - N/A   Scattered Clouds
6:53 AM 33.1 °F 23.0 °F 21.0 °F 61% 30.00 in 10.0 mi WNW 15.0 mph - N/A   Mostly Cloudy
7:53 AM 34.0 °F 25.0 °F 21.9 °F 61% 30.03 in 10.0 mi West 12.7 mph - N/A   Clear
8:53 AM 37.0 °F 26.7 °F 23.0 °F 57% 30.06 in 10.0 mi West 19.6 mph 25.3 mph N/A   Clear
9:53 AM 39.9 °F 31.4 °F 21.9 °F 49% 30.07 in 10.0 mi West 16.1 mph - N/A   Clear
10:53 AM 42.1 °F 33.6 °F 19.0 °F 40% 30.08 in 10.0 mi WNW 18.4 mph 23.0 mph N/A   Clear
11:53 AM 43.0 °F 34.2 °F 12.9 °F 30% 30.07 in 10.0 mi West 20.7 mph 31.1 mph N/A   Clear
12:53 PM 43.0 °F 33.8 °F 15.1 °F 32% 30.07 in 10.0 mi West 23.0 mph 29.9 mph N/A   Clear
1:53 PM 44.1 °F 35.7 °F 12.9 °F 28% 30.07 in 10.0 mi West 20.7 mph 33.4 mph N/A   Clear
2:53 PM 44.1 °F 34.8 °F 3.9 °F 19% 30.07 in 10.0 mi West 25.3 mph 33.4 mph N/A   Clear
3:53 PM 43.0 °F 33.8 °F 3.0 °F 19% 30.11 in 10.0 mi West 23.0 mph 32.2 mph N/A   Clear
4:53 PM 41.0 °F 31.6 °F 3.0 °F 21% 30.14 in 10.0 mi West 20.7 mph 28.8 mph N/A   Clear
5:53 PM 39.0 °F 28.5 °F 5.0 °F 24% 30.17 in 10.0 mi West 23.0 mph - N/A   Clear
6:53 PM 37.0 °F 28.9 °F 5.0 °F 26% 30.23 in 10.0 mi WNW 12.7 mph - N/A   Clear
7:53 PM 36.0 °F 27.5 °F 7.0 °F 30% 30.24 in 10.0 mi NW 12.7 mph - N/A   Clear
8:53 PM 30.0 °F 26.5 °F 6.1 °F 36% 30.27 in 10.0 mi West 3.5 mph - N/A   Clear
9:53 PM 28.9 °F 21.9 °F 7.0 °F 40% 30.30 in 10.0 mi WSW 6.9 mph - N/A   Clear
10:53 PM 28.0 °F 18.6 °F 8.1 °F 43% 30.31 in 10.0 mi WSW 10.4 mph - N/A   Clear
11:53 PM 26.1 °F 17.6 °F 8.1 °F 47% 30.32 in 10.0 mi WSW 8.1 mph - N/A   Clear